Location: Lugrin
(46.4033°N, 6.6674°E)
Time: 06:40:05
(UTC+00:00)

Tsikada Rocket - Pass Details

Date: 17 January 2021
Orbit: 958 x 1009 km, 82.9° (Epoch: 06 March)

Event Time Altitude Azimuth Distance (km) Brightness Sun altitude
Rises 19:04:39 0° 249° (WSW) 3,711 8.1 -28.6°
Reaches altitude 10° 19:09:02 10° 277° (W) 2,755 7.3 -29.3°
Maximum altitude 19:11:36 13° 302° (WNW) 2,567 6.8 -29.8°
Drops below altitude 10° 19:14:09 10° 326° (NW) 2,747 6.7 -30.2°
Sets 19:18:32 0° 355° (N) 3,687 7.1 -31.0°
